Terminal Aerodrome Forecast
Issued by NWS

Home | Current Version | Previous Version | Text Only | Print | Product List | Glossary On
Versions: 1 2 3 4 5 6 7 8 9 10 11 12 13 14 15 16 17 18 19 20 21 22 23 24 25 26 27 28 29 30 31 32 33
000
FTUS46 KMTR 220900 AAA
TAFSFO
TAF AMD
KSFO 220906Z 2209/2312 26006KT P6SM FEW010 BKN012 OVC016
     FM221800 27010KT P6SM SCT015
     FM222000 27015KT P6SM FEW015
     FM230400 27010KT P6SM SCT010
     FM230600 27006KT P6SM BKN010=

USA.gov is the U.S. government's official web portal to all federal, state and local government web resources and services.